Terug naar catalogus

CZ-3B DEB

ActiefGTO
NORAD 40851·DEBRIS·🇨🇳 China

Gelanceerd Dec 19, 2011 vanaf Xichang Satellite Launch Center

Loading…

TLE

VerouderendSource: Space-Track

Epoch: Sep 14, 2026, 11:24 UTC

1 40851U 11077AG  26257.47509580 -.00000243  00000-0  22976-2 0  9992
2 40851  26.5856 359.4151 7360404  38.2438 355.5813  1.90206144 87925

Volg CZ-3B DEB in realtime met AllMySat

Download on the App Store